RH
28 27 29 28 45 58 66 76 82 88 92 97 97 97 92 96 94 90 92 93 98 95 93 91 89 86 79 64 63 83 86 93 90 92 94 92 90 91 91 93 94 92 88
32 30 31 30 35 44 66 76 82 84 90 90 90 95 93 93 92 89 91 90 89 88 94 89 90 86 79 64 59 76 93 94 84 91 94 94 88 92 86 90 86 88 87
35 31 31 32 31 43 68 76 85 85 87 88 93 97 96 97 96 91 94 94 88 88 80 88 86 85 76 71 55 76 74 85 92 83 87 97 94 94 93 90 88 85 86
37 35 31 30 30 34 74 77 84 86 88 90 91 89 90 89 88 90 89 90 86 84 81 86 82 81 76 70 56 70 70 76 77 95 91 89 90 92 94 94 92 91 89
45 37 35 30 30 45 79 83 84 86 85 91 89 92 92 88 82 89 90 86 83 76 79 90 82 80 76 66 58 71 72 69 75 74 97 95 95 92 93 95 96 95 95
73 66 63 62 44 66 77 90 90 89 89 92 93 92 92 88 86 90 92 86 81 81 77 88 84 77 74 70 64 71 74 76 76 91 94 93 92 94 94 96 96 95 97
78 76 79 60 48 74 88 93 93 92 93 92 93 93 91 88 90 92 91 86 81 84 76 75 76 74 72 71 68 76 78 83 82 85 85 92 89 93 93 93 97 97 98
92 92 64 68 74 80 88 90 93 90 93 92 93 91 89 92 92 91 90 80 76 94 76 74 73 72 70 75 73 78 80 84 86 84 91 91 91 92 93 92 96 98 98
94 76 65 74 79 88 92 90 92 84 91 91 91 90 92 93 94 92 90 79 78 94 98 81 75 73 75 76 76 78 81 85 88 87 87 86 94 95 94 94 92 92 99
94 93 84 88 91 91 94 92 92 90 88 89 91 86 95 96 96 96 85 79 87 87 92 91 82 82 82 79 77 79 80 83 88 87 88 94 96 96 96 96 94 92 94
95 92 92 91 83 86 88 89 91 87 87 89 91 92 97 97 96 98 99 97 96 93 93 90 88 88 84 79 78 80 83 80 89 94 91 92 96 95 98 97 96 97 94
92 93 93 93 91 86 91 92 88 86 85 84 90 97 96 96 96 93 98 99 97 95 94 93 92 90 86 82 78 83 88 83 91 91 93 94 97 98 98 99 98 98 96
97 97 98 97 96 94 95 92 93 95 93 91 96 98 98 99 98 94 95 97 97 95 94 92 93 93 89 88 82 83 86 85 86 92 95 97 97 99 99 99 99 98 98
93 94 96 98 98 96 94 89 94 98 98 99 99 99 99 99 98 94 93 95 92 93 93 89 88 89 89 87 87 88 91 92 94 95 94 97 96 97 98 98 98 98 98
92 94 95 95 95 96 96 97 98 98 98 98 98 99 99 98 98 94 93 92 92 92 91 93 92 91 92 92 92 94 95 95 97 97 96 96 96 97 95 96 98 97 97
91 92 93 93 94 95 96 95 96 96 92 94 97 97 98 98 98 98 98 97 96 97 97 96 96 97 97 99 97 94 95 95 96 98 98 98 100 99 96 95 93 89 92
91 88 88 88 89 89 90 91 91 89 90 91 93 94 94 96 98 98 98 98 99 99 99 99 98 98 99 100 99 98 95 97 96 96 98 99 99 99 97 96 95 93 91
87 88 86 83 80 76 75 75 74 77 81 84 86 89 90 93 93 94 96 98 98 99 99 99 99 99 100 100 100 100 96 98 98 98 98 98 98 98 98 98 99 98 98
84 86 82 82 80 80 74 76 80 80 82 84 84 85 85 88 89 94 97 96 96 98 99 99 99 99 99 100 100 99 99 99 99 99 99 98 98 98 98 98 98 99 98
85 87 82 81 83 81 77 81 86 87 91 90 89 87 88 88 92 92 94 93 95 96 96 98 98 98 99 97 98 99 99 99 99 99 99 98 97 98 96 95 95 97 95
88 83 83 87 87 82 79 86 89 94 89 85 85 88 90 92 94 93 94 96 95 92 93 94 93 93 96 95 96 96 99 99 99 99 99 98 97 97 96 92 92 88 88
90 87 89 91 89 88 86 92 96 91 87 86 87 90 90 88 90 93 94 94 94 95 96 95 94 95 93 91 92 94 95 96 98 98 97 97 97 97 96 95 86 82 86
93 91 94 94 95 94 94 95 97 91 88 88 92 93 92 92 94 95 95 94 94 95 96 96 96 96 95 95 90 91 93 93 97 92 92 92 96 97 96 94 91 90 94
94 94 93 96 98 96 93 96 96 94 91 93 93 92 93 91 92 87 90 95 93 89 97 97 98 96 95 92 90 94 96 94 92 95 96 95 95 96 94 95 94 95 91
94 94 95 97 98 93 92 93 92 90 80 81 85 81 90 93 95 91 87 85 77 84 94 87 90 98 98 95 92 93 90 92 93 95 99 100 99 99 99 99 98 97 94
92 93 93 95 95 93 93 92 92 91 88 85 80 74 70 67 68 68 75 70 75 82 81 84 85 84 87 89 90 91 93 93 92 98 99 98 98 98 97 97 98 98 96
Wind_Speed
19 15 14 14 10 9 8 9 8 10 8 5 4 4 8 7 6 9 7 6 4 11 13 11 12 13 12 12 12 6 8 2 4 4 3 2 2 4 4 4 4 5 6
19 18 15 13 12 12 10 9 11 11 12 9 7 4 5 7 8 8 9 9 8 10 7 14 13 15 12 13 13 10 5 3 7 5 3 2 2 3 5 4 5 6 4
21 20 17 14 14 13 11 11 12 13 12 14 6 3 2 2 6 9 9 10 11 9 8 14 14 15 13 13 15 12 13 7 5 6 6 3 5 2 2 5 4 5 3
18 18 18 16 14 14 11 11 12 13 13 13 9 11 9 10 8 8 10 11 12 15 14 18 17 16 12 14 15 12 11 8 11 1 1 2 5 4 2 2 2 4 4
12 13 13 14 15 11 10 11 12 12 13 13 13 10 11 9 9 9 12 13 14 17 15 14 18 17 13 14 16 15 13 10 10 8 4 2 1 1 3 3 2 1 2
14 15 15 15 16 11 11 9 11 12 13 13 14 14 14 13 12 11 12 12 10 12 19 23 17 17 15 16 15 15 15 11 10 5 4 4 4 4 3 2 2 3 2
13 14 13 13 11 13 10 8 11 11 12 13 13 14 15 16 16 13 12 15 13 13 19 24 22 18 18 16 15 14 13 11 11 11 8 4 4 3 3 3 2 3 1
11 11 9 8 9 8 9 9 10 12 12 12 13 13 16 11 10 11 11 12 14 10 17 22 22 20 18 15 14 11 11 10 10 12 7 5 5 4 4 4 5 2 1
8 6 5 6 7 7 9 11 11 11 8 8 10 13 12 13 10 13 15 15 16 10 6 16 16 16 16 16 16 11 12 11 10 10 10 7 4 4 3 3 3 5 5
7 3 3 5 5 6 6 7 6 5 4 5 7 12 10 11 12 13 18 17 13 16 19 12 14 15 15 16 15 12 12 13 9 8 9 6 4 5 4 4 3 2 4
6 5 2 3 6 7 6 7 6 6 6 5 9 11 12 10 9 4 4 6 10 13 15 15 14 14 16 16 14 12 13 14 11 7 9 9 7 6 5 4 3 4 4
6 5 5 5 5 6 5 5 8 10 10 8 14 7 7 8 8 8 3 4 8 9 13 13 14 13 13 13 14 12 12 14 13 12 10 10 6 7 6 5 6 5 4
7 3 2 3 3 4 4 7 5 10 7 11 8 8 8 8 12 13 10 9 8 11 13 14 14 12 12 11 11 13 13 13 12 11 11 9 10 8 5 5 5 4 3
20 16 11 2 4 5 11 12 10 7 6 6 5 3 2 6 9 15 12 12 11 11 12 12 13 14 13 14 14 13 12 10 9 9 10 10 12 12 11 8 8 5 5
24 21 21 19 18 19 17 15 13 13 9 10 8 7 5 9 9 8 11 12 13 11 11 10 9 10 12 10 14 11 11 11 9 9 10 11 12 15 15 10 9 9 6
25 22 22 22 21 20 17 17 16 15 15 14 12 10 9 12 12 12 9 9 11 9 8 8 9 9 6 12 14 13 10 10 11 10 10 9 12 13 16 14 15 15 13
19 20 20 20 18 18 17 17 16 15 15 15 14 14 14 14 14 13 13 13 8 8 6 6 6 6 5 12 13 14 9 10 12 12 11 8 7 10 9 9 9 7 8
16 17 16 16 16 15 15 15 16 15 16 15 15 16 14 15 14 15 14 13 10 11 7 6 6 3 3 7 10 13 9 8 10 10 11 11 10 11 13 12 10 10 8
11 11 11 12 13 14 13 14 15 15 15 15 15 15 14 14 14 14 13 11 10 11 10 7 8 7 4 3 7 4 1 6 6 4 7 11 10 14 18 13 11 7 4
8 10 11 11 13 12 11 15 15 14 15 13 13 12 12 12 11 9 10 8 7 8 6 6 6 7 6 11 11 8 1 6 3 6 7 9 10 19 19 13 15 13 12
9 8 10 11 11 11 13 17 16 17 11 10 11 12 12 12 11 10 8 8 8 7 7 7 6 6 7 8 10 9 4 3 2 3 5 6 18 25 24 18 14 12 11
8 8 9 10 11 11 12 13 14 8 9 11 12 12 13 10 9 10 9 9 9 7 6 5 6 6 6 9 8 9 7 6 3 4 3 5 16 20 20 16 14 13 18
6 6 7 8 10 10 10 13 9 9 10 11 11 13 10 10 9 10 10 8 8 7 7 6 5 4 4 5 11 15 16 10 6 4 4 4 10 15 13 14 16 21 9
5 4 6 9 10 9 11 10 11 9 9 10 10 9 9 10 9 7 6 6 7 8 7 7 6 5 4 4 3 3 5 10 8 7 4 6 9 13 10 12 14 8 11
5 5 6 6 6 7 9 8 8 8 9 7 8 7 8 7 5 6 8 7 8 10 8 8 7 6 6 5 11 10 6 6 8 4 1 2 3 4 4 4 4 5 5
3 5 6 6 5 6 7 7 6 5 6 6 7 10 8 8 8 9 7 13 16 16 16 16 12 9 15 18 18 14 11 14 16 5 4 7 7 9 10 12 11 10 11
Wind_Direction
249 240 232 241 217 226 227 218 205 209 189 174 175 210 219 220 219 229 213 241 120 147 174 178 175 174 176 183 176 156 174 151 150 105 51 2 244 222 223 216 224 229 230
251 245 232 223 223 221 214 214 207 202 198 193 192 177 188 212 213 214 205 202 175 154 198 187 180 187 176 177 182 177 142 152 171 146 117 141 317 258 224 215 222 231 235
254 250 241 226 223 213 208 209 203 199 198 196 179 165 210 219 202 213 212 208 218 214 201 201 183 188 182 181 181 182 177 170 190 193 146 134 214 145 196 224 216 229 223
264 250 241 235 226 221 198 201 201 199 195 195 190 195 199 211 211 208 212 210 210 207 204 210 189 189 187 182 186 182 183 171 182 195 194 117 144 173 223 253 205 204 185
259 251 238 237 235 214 200 201 202 203 196 192 192 197 208 216 216 211 206 209 214 214 191 206 183 191 188 185 184 181 183 185 174 188 146 132 119 118 136 187 196 69 147
254 248 248 250 233 199 203 192 192 203 194 189 195 203 210 216 221 210 206 215 226 210 192 188 193 191 192 186 186 185 183 177 178 176 167 162 162 187 162 135 149 161 182
272 261 252 237 201 192 187 180 183 197 195 192 201 209 218 219 219 215 214 220 221 226 200 194 189 189 188 185 180 181 180 177 177 180 188 162 175 147 138 119 128 142 152
286 257 219 174 175 183 183 181 180 198 197 196 206 212 223 216 218 220 233 220 210 206 203 190 185 179 181 178 177 179 177 177 181 184 180 180 176 161 170 162 143 110 167
292 266 252 192 174 172 173 177 182 198 184 200 212 217 222 218 219 223 238 229 192 176 166 170 166 172 173 176 174 176 176 177 177 187 190 189 178 168 178 167 153 150 177
307 351 155 161 152 134 138 152 149 167 194 223 243 231 211 217 235 229 214 199 175 161 162 181 175 170 172 180 176 178 176 174 183 185 186 179 159 167 176 177 164 149 141
288 293 48 103 144 140 165 189 203 219 215 219 254 212 200 210 247 287 182 160 141 157 164 166 169 170 176 179 176 177 175 180 177 176 183 193 165 182 177 169 159 159 138
235 211 187 183 215 173 179 235 250 242 213 215 211 193 200 220 225 231 188 176 170 153 158 163 166 169 178 181 172 176 175 184 180 188 186 188 164 174 172 172 186 167 164
31 139 164 213 178 196 228 253 242 271 191 176 183 182 194 238 224 200 191 173 180 172 172 166 167 165 171 174 181 177 186 182 192 184 184 179 171 175 174 179 178 169 153
42 35 28 143 171 250 237 233 199 126 128 115 121 81 344 295 208 185 176 174 176 171 165 169 166 168 173 175 178 183 185 178 174 175 182 179 185 190 189 179 187 167 157
32 32 33 41 38 44 45 53 65 69 61 58 48 40 356 11 56 144 158 163 159 163 159 155 164 165 169 173 174 177 174 175 176 182 190 192 193 191 186 177 182 170 165
22 29 37 37 34 35 38 43 48 47 48 44 31 24 26 43 40 52 65 137 139 139 138 143 151 159 174 173 172 168 177 184 187 193 198 195 185 186 184 186 180 184 175
21 26 30 29 36 32 35 39 45 46 46 46 37 34 38 37 31 36 44 47 68 98 104 128 149 178 170 178 179 179 188 192 197 199 199 191 188 193 182 183 156 131 133
24 28 30 29 27 36 41 46 44 44 43 39 38 35 34 48 44 40 36 38 27 49 38 57 43 113 98 183 206 205 203 195 207 197 196 195 185 189 174 157 156 155 148
25 29 30 32 33 36 36 46 44 43 42 36 38 36 32 36 36 37 31 27 36 40 38 28 18 7 21 76 131 121 234 209 170 175 201 193 188 182 166 156 145 140 146
29 25 23 33 37 28 37 52 45 42 40 28 34 37 37 39 42 40 35 29 38 40 38 38 22 33 20 22 2 348 184 166 181 158 158 182 164 158 165 162 160 172 181
19 22 39 43 28 24 39 45 37 33 27 33 39 40 35 34 23 24 32 34 31 28 25 17 8 13 18 0 350 341 346 334 276 206 188 199 185 177 173 171 184 187 152
28 29 45 37 31 30 43 45 42 12 28 37 39 42 40 36 31 36 23 23 20 27 29 21 357 348 352 347 337 320 297 306 270 234 228 208 192 192 187 181 182 151 145
28 22 41 48 39 37 43 48 16 13 23 35 30 33 29 26 18 28 25 31 31 28 9 1 356 344 332 327 327 323 317 306 286 286 263 237 217 211 187 175 164 154 156
42 34 52 47 38 25 33 31 17 10 19 30 27 23 23 23 21 19 24 26 27 18 12 1 350 337 332 326 319 297 295 297 292 279 261 233 206 186 190 165 173 175 167
38 34 45 50 44 39 41 30 17 13 25 17 16 16 34 18 9 22 27 18 17 8 357 346 333 332 332 331 331 328 305 282 264 255 238 225 194 166 156 155 159 145 173
49 53 55 59 40 40 35 24 18 25 32 30 26 28 20 8 10 10 356 3 0 4 3 356 354 338 336 336 331 325 319 294 287 242 218 220 214 206 202 185 183 182 183